Weather History for KFNL - December, 2014

Change the Weather History Date:

Tuesday, December 2, 2014

  Actual Average Record
Temperature  
Mean Temperature 42 °F -  
Max Temperature 62 °F 43 °F 66 °F (2008)
Min Temperature 21 °F 20 °F 3 °F (2004)
Degree Days  
Heating Degree Days 24    
Moisture  
Dew Point 19 °F    
Average Humidity 40    
Maximum Humidity 86    
Minimum Humidity 17    
Precipitation  
Precipitation 0.00 in - - ()
Sea Level Pressure  
Sea Level Pressure 30.00 in    
Wind  
Wind Speed 6 mph (West)    
Max Wind Speed 20 mph    
Max Gust Speed 29 mph    
Visibility 10 miles    
Events      
Averages and records for this station are not official NWS values.
T = Trace of Precipitation, MM = Missing Value Source: NWS Daily Summary

Daily Weather History Graph

Daily Weather History Graph

Search for Another Location

Airport or City:

Trip Planner

Search our weather history database for the weather conditions in past years. The results will help you decide how hot, cold, wet, or windy it might be!

Date:

Astronomy

Dec. 02, 2014 Rise Set
Actual Time 7:05 AM MST 4:33 PM MST
Civil Twilight 6:34 AM MST 5:04 PM MST
Nautical Twilight 6:00 AM MST 5:38 PM MST
Astronomical Twilight 5:27 AM MST 6:10 PM MST
Moon 2:17 PM MST (12/2) 2:49 AM MST (12/2)
Length of Visible Light 10h 29m
Length of Day
9h 28m
Waxing Gibbous, 84% of the Moon is Illuminated
Dec 2
Waxing Gibbous
Dec 6
Full
Dec 14
Last Quarter
Dec 21
New
Dec 28
First Quarter

Hourly Weather History & Observations

Time (MST) Temp. Windchill Dew Point Humidity Pressure Visibility Wind Dir Wind Speed Gust Speed Precip Events Conditions
12:15 AM 21.2 °F 16.4 °F 15.8 °F 80% 30.07 in 10.0 mi WSW 3.5 mph - N/A   Clear
12:35 AM 23.0 °F 18.4 °F 17.6 °F 80% 30.06 in 10.0 mi South 3.5 mph - N/A   Clear
12:55 AM 23.0 °F - 17.6 °F 80% 30.06 in 10.0 mi Calm Calm - N/A   Clear
1:15 AM 21.2 °F - 15.8 °F 80% 30.06 in 10.0 mi Calm Calm - N/A   Clear
1:35 AM 21.2 °F 13.6 °F 17.6 °F 86% 30.04 in 10.0 mi SSE 5.8 mph - N/A   Clear
1:55 AM 21.2 °F 14.9 °F 15.8 °F 80% 30.05 in 10.0 mi North 4.6 mph - N/A   Clear
2:15 AM 21.2 °F - 17.6 °F 86% 30.04 in 10.0 mi Calm Calm - N/A   Clear
2:35 AM 26.6 °F 17.5 °F 19.4 °F 74% 30.02 in 10.0 mi North 9.2 mph - N/A   Clear
2:55 AM 32.0 °F 25.6 °F 21.2 °F 64% 30.02 in 10.0 mi SSE 6.9 mph - N/A   Clear
3:15 AM 35.6 °F 31.7 °F 21.2 °F 56% 30.01 in 10.0 mi SE 4.6 mph - N/A   Clear
3:35 AM 41.0 °F 39.0 °F 23.0 °F 49% 29.99 in 10.0 mi North 3.5 mph - N/A   Clear
3:55 AM 39.2 °F 35.9 °F 21.2 °F 49% 29.98 in 10.0 mi East 4.6 mph - N/A   Clear
4:15 AM 46.4 °F 43.5 °F 23.0 °F 40% 29.98 in 10.0 mi WSW 5.8 mph - N/A   Clear
4:35 AM 48.2 °F - 21.2 °F 34% 29.98 in 10.0 mi WSW 11.5 mph 17.3 mph N/A   Clear
4:55 AM 48.2 °F - 21.2 °F 34% 29.97 in 10.0 mi West 3.5 mph - N/A   Clear
5:15 AM 46.4 °F 45.2 °F 21.2 °F 37% 29.97 in 10.0 mi ESE 3.5 mph - N/A   Clear
5:35 AM 48.2 °F - 21.2 °F 34% 29.97 in 10.0 mi ENE 5.8 mph - N/A   Clear
5:55 AM 48.2 °F - 21.2 °F 34% 29.97 in 10.0 mi East 9.2 mph - N/A   Clear
6:15 AM 48.2 °F - 21.2 °F 34% 29.98 in 10.0 mi Calm Calm - N/A   Clear
6:35 AM 44.6 °F 42.2 °F 19.4 °F 37% 29.98 in 10.0 mi NNE 4.6 mph - N/A   Clear
6:55 AM 44.6 °F - 17.6 °F 34% 29.99 in 10.0 mi Calm Calm - N/A   Clear
7:15 AM 46.4 °F - 19.4 °F 34% 29.99 in 10.0 mi Calm Calm - N/A   Clear
7:35 AM 46.4 °F - 19.4 °F 34% 30.00 in 10.0 mi Calm Calm - N/A   Clear
7:55 AM 48.2 °F - 19.4 °F 32% 30.00 in 10.0 mi North 5.8 mph - N/A   Clear
8:15 AM 48.2 °F - 21.2 °F 34% 30.00 in 10.0 mi North 9.2 mph - N/A   Clear
8:35 AM 51.8 °F - 21.2 °F 30% 30.00 in 10.0 mi North 9.2 mph 17.3 mph N/A   Clear
8:55 AM 51.8 °F - 21.2 °F 30% 30.01 in 10.0 mi North 10.4 mph - N/A   Clear
9:15 AM 53.6 °F - 21.2 °F 28% 30.01 in 10.0 mi Calm Calm - N/A   Clear
9:35 AM 55.4 °F - 19.4 °F 25% 30.01 in 10.0 mi West 8.1 mph - N/A   Clear
9:55 AM 55.4 °F - 21.2 °F 26% 30.01 in 10.0 mi WSW 13.8 mph 20.7 mph N/A   Clear
10:15 AM 57.2 °F - 19.4 °F 23% 30.00 in 10.0 mi West 19.6 mph 23.0 mph N/A   Clear
10:35 AM 57.2 °F - 19.4 °F 23% 29.98 in 10.0 mi WSW 17.3 mph 24.2 mph N/A   Clear
10:55 AM 57.2 °F - 19.4 °F 23% 29.98 in 10.0 mi West 13.8 mph 21.9 mph N/A   Clear
11:15 AM 59.0 °F - 19.4 °F 22% 29.97 in 10.0 mi West 17.3 mph - N/A   Clear
11:35 AM 60.8 °F - 19.4 °F 20% 29.96 in 10.0 mi SW 12.7 mph 28.8 mph N/A   Clear
11:55 AM 60.8 °F - 19.4 °F 20% 29.95 in 10.0 mi WSW 12.7 mph - N/A   Clear
12:15 PM 60.8 °F - 19.4 °F 20% 29.95 in 10.0 mi SW 12.7 mph 25.3 mph N/A   Clear
12:35 PM 60.8 °F - 19.4 °F 20% 29.94 in 10.0 mi SW 12.7 mph 16.1 mph N/A   Clear
12:55 PM 60.8 °F - 19.4 °F 20% 29.94 in 10.0 mi Calm Calm - N/A   Clear
1:15 PM 60.8 °F - 19.4 °F 20% 29.93 in 10.0 mi WSW 6.9 mph - N/A   Clear
1:35 PM 60.8 °F - 17.6 °F 19% 29.93 in 10.0 mi West 9.2 mph - N/A   Clear
1:55 PM 60.8 °F - 17.6 °F 19% 29.92 in 10.0 mi WSW 10.4 mph 18.4 mph N/A   Clear
2:15 PM 60.8 °F - 17.6 °F 19% 29.92 in 10.0 mi West 9.2 mph - N/A   Clear
2:35 PM 62.6 °F - 17.6 °F 18% 29.92 in 10.0 mi WSW 12.7 mph - N/A   Clear
2:55 PM 60.8 °F - 17.6 °F 19% 29.92 in 10.0 mi West 11.5 mph - N/A   Clear
3:15 PM 60.8 °F - 15.8 °F 17% 29.91 in 10.0 mi WSW 12.7 mph 19.6 mph N/A   Clear
3:35 PM 60.8 °F - 15.8 °F 17% 29.91 in 10.0 mi West 13.8 mph - N/A   Clear
3:55 PM 59.0 °F - 15.8 °F 19% 29.92 in 10.0 mi West 4.6 mph - N/A   Clear
4:15 PM 57.2 °F - 15.8 °F 20% 29.93 in 10.0 mi Calm Calm - N/A   Clear
4:35 PM 57.2 °F - 12.2 °F 17% 29.93 in 10.0 mi ESE 5.8 mph - N/A   Clear
4:55 PM 53.6 °F - 12.2 °F 19% 29.94 in 10.0 mi Calm Calm - N/A   Clear
5:15 PM 53.6 °F - 12.2 °F 19% 29.95 in 10.0 mi SSE 6.9 mph - N/A   Clear
5:35 PM 51.8 °F - 12.2 °F 21% 29.96 in 10.0 mi SSE 6.9 mph - N/A   Clear
5:55 PM 51.8 °F - 12.2 °F 21% 29.97 in 10.0 mi NNE 8.1 mph - N/A   Clear
6:15 PM 51.8 °F - 12.2 °F 21% 29.97 in 10.0 mi NW 13.8 mph 18.4 mph N/A   Clear
6:35 PM 51.8 °F - 12.2 °F 21% 29.97 in 10.0 mi NNE 12.7 mph - N/A   Clear
6:55 PM 51.8 °F - 14.0 °F 22% 29.99 in 10.0 mi ESE 9.2 mph - N/A   Clear
7:15 PM 46.4 °F 41.5 °F 15.8 °F 29% 30.00 in 10.0 mi ESE 10.4 mph - N/A   Clear
7:35 PM 41.0 °F 35.2 °F 17.6 °F 39% 30.01 in 10.0 mi SE 9.2 mph - N/A   Clear
7:55 PM 39.2 °F 35.0 °F 21.2 °F 49% 30.02 in 10.0 mi SSE 5.8 mph - N/A   Clear
8:15 PM 37.4 °F 33.8 °F 21.2 °F 52% 30.03 in 10.0 mi WSW 4.6 mph - N/A   Clear
8:35 PM 35.6 °F 29.9 °F 21.2 °F 56% 30.04 in 10.0 mi South 6.9 mph - N/A   Clear
8:55 PM 37.4 °F 34.9 °F 23.0 °F 56% 30.04 in 10.0 mi ESE 3.5 mph - N/A   Clear
9:15 PM 33.8 °F - 21.2 °F 60% 30.06 in 10.0 mi Calm Calm - N/A   Clear
9:35 PM 35.6 °F 29.9 °F 24.8 °F 65% 30.07 in 10.0 mi East 6.9 mph - N/A   Clear
9:55 PM 35.6 °F 30.7 °F 23.0 °F 60% 30.10 in 10.0 mi ENE 5.8 mph - N/A   Clear
10:15 PM 33.8 °F 27.0 °F 21.2 °F 60% 30.11 in 10.0 mi NNE 8.1 mph - N/A   Clear
10:35 PM 30.2 °F 23.4 °F 19.4 °F 64% 30.13 in 10.0 mi North 6.9 mph - N/A   Clear
10:55 PM 28.4 °F 20.4 °F 19.4 °F 69% 30.14 in 10.0 mi North 8.1 mph - N/A   Clear
11:15 PM 28.4 °F 22.2 °F 19.4 °F 69% 30.15 in 10.0 mi North 5.8 mph - N/A   Clear
11:35 PM 28.4 °F 21.2 °F 19.4 °F 69% 30.15 in 10.0 mi NNW 6.9 mph - N/A   Clear
11:55 PM 28.4 °F 22.2 °F 21.2 °F 74% 30.15 in 10.0 mi NNW 5.8 mph - N/A   Clear